Regional Weather Roundup
Issued by NWS Wakefield, VA

Home | Current Version | Previous Version | Text Only | Print | Product List | Glossary On
Versions: 1 2 3 4 5 6 7 8 9 10 11 12 13 14 15 16 17 18 19 20 21 22 23 24 25 26 27 28
000
ASUS41 KAKQ 241010
RWRAKQ

REGIONAL WEATHER ROUNDUP
NATIONAL WEATHER SERVICE WAKEFIELD VA
600 AM EDT THU APR 24 2014

Note: "fair" indicates few or no clouds below 12,000 feet with no
significant weather and/or obstructions to visibility. * = Denotes
station may not report precipitation (e.g., rain,snow,etc.),
thunder or fog.

VAZ042-051-052>054-056-241100-
NORTHERN VIRGINIA

CITY           SKY/WX    TMP DP  RH WIND       PRES   REMARKS
WASH NATIONAL  CLEAR     46  24  42 NW9       30.07R
DULLES         PTCLDY    40  21  46 W8        30.08R
FORT BELVOIR   CLEAR     43  23  46 W7        30.08R
QUANTICO       CLEAR     44  26  49 NW7       30.09R
FREDERICKSBRG* CLEAR     45  30  55 NW3       30.06S
STAFFORD*      CLEAR     43  28  56 N5        30.11R
WARRENTON      CLEAR     44  32  62 N8        30.07R
CULPEPER*      CLEAR     39  27  60 N5        30.08R
MANASSAS*      CLEAR     37  30  75 NW8       30.08R
LEESBURG*      CLEAR     41  27  56 NW9       30.08R
WINCHESTER     CLEAR     39  21  48 NW5       30.08R
$$

VAZ048-049-060>072-079>083-241100-
CENTRAL AND SOUTH CENTRAL VIRGINIA...AND NORTH CENTRAL NORTH CAROLINA

CITY           SKY/WX    TMP DP  RH WIND       PRES   REMARKS
RICHMOND       CLEAR     43  29  57 N6        30.07R
CHESTERFIELD*  SUNNY     37  25  60 CALM      30.08R
HANOVER        CLEAR     35  32  88 CALM      30.09R
TAPPAHANNOCK*  CLEAR     42  25  50 CALM      30.06R
CHARLOTTSVILLE CLEAR     43  25  49 NW6       30.07R
ORANGE*        CLEAR     34  30  86 CALM      30.09R
LOUISA*        CLEAR     30  27  86 CALM      30.07R
FARMVILLE*     CLEAR     36  30  80 CALM      30.06S
SOUTH HILL*    CLEAR     45  34  65 NE5       30.12R
ROANOKE RAPIDS SUNNY     41  36  81 CALM      30.08R
RALEIGH        PTCLDY    43  33  68 CALM      30.07R
$$

VAZ088>098-241100-
SOUTHEAST VIRGINIA

CITY           SKY/WX    TMP DP  RH WIND       PRES   REMARKS
NORFOLK        CLEAR     49  32  52 N10       30.05R
VIRGINIA BEACH CLEAR     48  30  49 N13       30.04R
NORFOLK NAVAL  CLEAR     49  30  48 N13       30.07R
WEST POINT*    CLEAR     41  32  69 CALM      30.08R
NEWPORT NEWS   CLEAR     49  29  46 N8        30.06R
LANGLEY AFB    CLEAR     46  31  55 N7        30.06R
FORT EUSTIS    CLEAR     48  32  55 N7        30.05R
WILLIAMSBURG*  CLEAR     45  34  65 N5        30.07R
FRANKLIN*      CLEAR     41  34  75 CALM      30.08R
WAKEFIELD      CLEAR     36  32  85 CALM      30.08R
$$

VAZ020-022-025-037-045-241100-
WESTERN AND SOUTHWEST VIRGINIA

CITY           SKY/WX    TMP DP  RH WIND       PRES   REMARKS
STAUNTON*      CLEAR     31  27  85 CALM      30.10R
HOT SPRINGS VA PTCLDY    34  28  80 W8        30.08R
LYNCHBURG      CLEAR     41  31  67 CALM      30.09R
DANVILLE       CLEAR     40  33  76 CALM      30.08R
MARTINSVILLE   CLEAR     33  32  96 CALM      30.10R
ROANOKE        PTCLDY    42  32  67 CALM      30.10R
BLACKSBURG     CLEAR     36  32  87 CALM      30.09S
DUBLIN*        CLEAR     37  30  77 CALM      30.09R
MARION*        CLEAR     32  28  85 CALM      30.09S
HILLSVILLE*    CLEAR     39  25  56 N5        30.09R
RICHLANDS*     SUNNY     45  30  55 E5        30.05S
WISE*          CLEAR     43  28  56 CALM      30.05F
ABINGDON*      CLEAR     43  28  56 E7        30.05S
$$

MDZ021>025-VAZ099-100-241100-
SOUTHERN MARYLAND AND THE DELMARVA PENINSULA

CITY           SKY/WX    TMP DP  RH WIND       PRES   REMARKS
PATUXENT RIVER CLEAR     44  27  51 W10       30.04R
BAY BRIDGE APT CLEAR     45  28  53 NW16      30.04R
LEONARDTOWN    CLEAR     41  28  60 W5        30.06R
DOVER          CLEAR     42  28  58 W12       29.97R
GEORGETOWN     CLEAR     42  29  59 W5        30.01R
EASTON         CLEAR     45  31  58 NW10G16   30.07R
CAMBRIDGE      CLEAR     48  30  49 NW7G17    30.03R
SALISBURY      CLEAR     46  30  53 NW8       30.02R
OCEAN CITY     CLEAR     41  30  65 W5        30.00R
WALLOPS ISLAND CLEAR     45  32  60 NW7       30.03R
ACCOMACK*      CLEAR     46  30  53 NW8       30.03R
$$

NCZ012>017-030>032-241100-
EASTERN NORTH CAROLINA

CITY           SKY/WX    TMP DP  RH WIND       PRES   REMARKS
ELIZABETH CITY CLEAR     48  34  58 NW12      30.06R
AHOSKIE*       CLEAR     37  34  89 CALM      30.08R
EDENTON*       CLEAR     40  36  85 CALM      30.06R
CURRITUCK*     CLEAR     46  31  56 W5        30.06R
KILL DEVIL HLS CLEAR     48  38  68 N6        30.03R
MANTEO         CLEAR     48  37  65 N8        30.04R
CAPE HATTERAS  CLEAR     51  36  56 NE9G21    30.04R
GOLDSBORO      CLEAR     45  39  81 N3        30.05R
WASHINGTON     CLEAR     45  37  74 CALM      30.07R
GREENVILLE     CLEAR     41  36  81 NE6       30.08R
NEW BERN       CLEAR     50  38  63 NE9       30.06R
WILMINGTON     CLEAR     48  41  76 N9        30.03R
$$

VAZ048-241100-
ELSEWHERE

CITY           SKY/WX    TMP DP  RH WIND       PRES   REMARKS
HARRISBURG PA  CLEAR     42  17  36 NW9       30.03R
BALTIMORE      CLEAR     39  27  62 W9        30.04R
ANNAPOLIS      CLEAR     45  29  53 W6        30.05R
ANDREWS AFB    CLEAR     43  25  49 NW9       30.05R
WILMINGTON DE  CLEAR     40  27  59 W9        30.01R
PHILADELPHIA   CLEAR     45  18  34 W12       29.98R
WILDWOOD NJ*   CLEAR     46  27  46 NW13G18   29.99R
ATLANTIC CITY  CLEAR     41  26  55 W13       29.95R
HENDERSON NC   CLEAR     39  34  82 N3        30.07R
GREENSBORO     PTCLDY    44  30  57 CALM      30.06R
ROCKY MOUNT    CLEAR     42  35  76 N7        30.07R
FAYETTEVILLE   CLEAR     45  37  73 N6        30.05R
CHARLOTTE      CLEAR     51  31  46 NE7       30.05R
$$

VAZ100-241100-
MARINE

STATION/POSITION TIME  TEMP    WIND        PRES    WAVE   SWELL
                       AIR SEA DIR/SP/G            HT/PER HT/PER
                 (UTC) (F)     (DEG/KT/KT) (MB)    (FT/S) (FT/S)
44066 TX TWR #4  1000   45 45  310/ 23/ 27 1009.2R   7/ 7   2/14
CAPE MAY NJ      1000   47 56  330/  9/ 20 1014.8R
LEWES DE         1000   45 51  290/ 15/ 18 1015.0R
15NM E FENWICK I 1000   46 46              1014.6R   4/ 6
OCEAN-CITY-INLET 1000   44 48  310/  8/ 11 1015.4R
WACHAPREAGUE VA  1000   47 55  330/  3/  7 1016.4R
THOMAS POINT MD  1000   46 52  300/ 18/ 19 1017.6R
GOOSES REEF MD   1000   47     320/ 14/ 17   N/A
COVE POINT MD    1000   46     330/ 13/ 21 1017.0R
SOLOMONS ISLAND  1000      55                N/A
BISHOPS HEAD MD  1000   47 51  320/ 15/ 17 1016.7R
PINEY POINT MD   1000          340/ 19/ 21   N/A
POTOMAC MD       1000   49     330/ 17/ 23 1016.8R
CAMBRIDGE MD     1000   49 56  300/ 17/ 20 1016.4R
LEWISETTA VA     1000   49 56  330/ 14/ 19 1017.4F
RAPPAHANNOCK LGT 1000          330/ 22/ 25 1017.2R
STINGRAY PT      1000   49     340/ 14/ 17 1017.3R
YORK RVR RNG VA  1000   48     330/ 11/ 12 1016.7S
YORKTOWN VA      1000   49 56  320/ 11/ 13 1017.4S
JAMESTOWN VA     1000   47     350/  4/  6   N/A
DOMINION TERM VA 1000   49     330/  4/ 10 1017.5R
KIPTOPEKE VA     1000      55  360/ 17/ 21   N/A
CHES BAY BRIDGE  1000   50 54  330/ 18/ 21 1017.1S
CAPE HENRY VA    1000   50     340/ 19/ 23   N/A
CHESAPEAKE LGHT  0900   50     340/ 19/ 21 1017.2R
WILLOUBY STN VA  1000   49     350/ 10/ 12 1016.6R
S CRANEY ISL VA  1000          320/ 11/ 17 1017.5R
CAPE HENRY BUOY  1000      47                N/A     3/ 5
1ST LANDING BUOY 1000      49                N/A     3/ 4   2/15
64NM E OF VA BCH 1000   49 48  350/ 19/ 25 1015.4S   6/ 6   2/15
DUCK PIER NC     1000   51 51   10/ 15/ 18 1016.0R
44100 DUCK FRF   1000      49                N/A     4/ 5   2/14
44056 DUCK FRF   1000      51                N/A     4/ 6
OREGON INLET NC  1000   49 56  350/ 10/ 13 1017.0S
HATTERAS NC      1000   53 61   20/ 16/ 22 1017.2R
DIAMOND SHLS NC  1000   55 74   10/ 23/ 27 1015.9R   6/ 6   2/11
CAPE LOOKOUT NC  0900   59      30/ 12/ 13 1016.0R
FRYING PAN SHLS  1000   64 68   20/ 14/ 17 1014.9R   3/ 9   2/ 9
$$



USA.gov is the U.S. government's official web portal to all federal, state and local government web resources and services.